sat.trackr.live / text

‹ back to catalog

HULIANWANG DIGUI-108

NORAD 66918 · 2025-285D

PAYLOAD ACTIVE UNKNOWN

§ Identity

Operator
Country
PRC
Launch date
2025-12-06
Launch site
WSC
Launch vehicle
Mass (kg)
RCS (m²)

External: N2YO · Heavens-Above · Gunter

§ Orbital elements

Epoch: 2026-09-20T02:27:34.456032Z

Period
108.33 min
Inclination
50.0045°
Eccentricity
0.0000112
Mean motion
13.29329115 rev/d
Perigee alt
1,149.2 km
Apogee alt
1,149.4 km
Semi-major
7,527.4 km
B*
4.8306e-5
RAAN
165.5863°
Arg perigee
264.8579°
Mean anomaly
95.2281°
Rev number
3,868

§ Raw data

HULIANWANG DIGUI-1081 66918U 25285D   26263.10248213 -.00000102  00000+0  48306-4 0  99902 66918  50.0045 165.5863 0000112 264.8579  95.2281 13.29329115 38683

JSON: /api/v1/satellites/66918 · /tle

For live sub-satellite position, see the globe view (requires WebGL).

§ Visibility from observer

Set your observer location to see the next 7 days of passes ≥ 10°. The values pass through the URL so the page stays shareable.

No JS? Fill the form by hand. The geolocation button needs JavaScript.